SCP
0 0 0 0 0 0 0 0 0 0 0 0 0 0 0 0 0 0 0 0 0 0 0 0 0 0 1 1 1 1 1 1 1 1 1 1 1 1 1 1 1 1 1
0 0 0 0 0 0 0 0 0 0 0 0 0 0 0 0 0 0 0 0 0 0 0 0 0 0 0 1 1 1 1 1 0 1 1 1 1 1 1 1 1 1 1
0 0 0 0 0 0 0 0 0 0 0 0 0 0 0 0 0 0 0 0 0 0 0 0 0 0 0 0 1 1 0 0 0 0 0 1 1 1 1 1 1 1 1
0 0 0 0 0 0 0 0 0 0 0 0 0 0 0 0 0 0 0 0 0 0 0 0 0 0 0 0 0 0 0 0 0 0 0 0 1 1 1 1 1 1 1
0 0 0 0 0 0 0 0 0 0 0 0 0 0 0 0 0 0 0 0 0 0 0 0 0 0 0 0 0 0 0 0 0 0 0 0 0 0 1 1 1 1 1
0 0 0 0 0 0 0 0 0 0 0 0 0 0 0 0 0 0 0 0 0 0 0 0 0 0 0 0 0 0 0 0 0 0 0 0 0 0 0 0 1 1 1
0 0 0 0 0 0 0 0 0 0 0 0 0 0 0 0 0 0 0 0 0 0 0 0 0 0 0 0 0 0 0 0 0 0 0 0 0 0 0 0 0 1 1
0 0 0 0 0 0 0 0 0 0 0 0 0 0 0 0 0 0 0 0 0 0 0 0 0 0 0 0 0 0 0 0 0 0 0 0 0 0 0 0 0 0 1
0 0 0 0 0 0 0 0 0 0 0 0 0 0 0 0 0 0 0 0 0 0 0 0 0 0 0 0 0 0 0 0 0 0 0 0 0 0 0 0 0 0 0
0 0 0 0 0 0 0 0 0 0 0 0 0 0 0 0 0 0 0 0 0 0 0 0 0 0 0 0 0 0 0 0 0 0 0 0 0 0 0 0 0 0 0
0 0 0 0 0 0 0 0 0 0 0 0 0 0 0 0 0 0 0 0 0 0 0 0 0 0 0 0 0 0 0 0 0 0 0 0 0 0 0 0 0 0 0
0 0 0 0 0 0 0 0 0 0 0 0 0 0 0 0 0 0 0 0 0 0 0 0 0 0 0 0 0 0 0 0 0 0 0 0 0 0 0 0 0 0 0
0 0 0 0 0 0 0 0 0 0 0 0 0 0 0 0 0 0 0 0 0 0 0 0 0 0 0 0 0 0 0 0 0 0 0 0 0 0 0 0 0 0 0
0 0 0 0 0 0 0 0 0 0 0 0 0 0 0 0 0 0 0 0 0 0 0 0 0 0 0 0 0 0 0 0 0 0 0 0 0 0 0 0 0 0 0
0 0 0 0 0 0 0 0 0 0 0 0 0 0 0 0 0 0 0 0 0 0 0 0 0 0 0 0 0 0 0 0 0 0 0 0 0 0 0 0 0 0 0
0 0 0 0 0 0 0 0 0 0 0 0 0 0 0 0 0 0 0 0 0 0 0 0 0 0 0 0 0 0 0 0 0 0 0 0 0 0 0 0 0 0 0
0 0 0 0 0 0 0 0 0 0 0 0 0 0 0 0 0 0 0 0 0 0 0 0 0 0 0 0 0 0 0 0 0 0 0 0 0 0 0 0 0 0 0
0 0 0 0 0 0 0 0 0 0 0 0 0 0 0 0 0 0 0 0 0 0 0 0 0 0 0 0 0 0 0 0 0 0 0 0 0 0 0 0 0 0 0
0 0 0 0 0 0 0 0 0 0 0 0 0 0 0 0 0 0 0 0 0 0 0 0 0 0 0 0 0 0 0 0 0 0 0 0 0 0 0 0 0 0 0
0 0 0 0 0 0 0 0 0 0 0 0 0 0 0 0 0 0 0 0 0 0 0 0 0 0 0 0 0 0 0 0 0 0 0 0 0 0 0 0 0 0 0
0 0 0 0 0 0 0 0 0 0 0 0 0 0 0 0 0 0 0 0 0 0 0 0 0 0 0 0 0 0 0 0 0 0 0 0 0 0 0 0 0 0 0
0 0 0 0 0 0 0 0 0 0 0 0 0 0 0 0 0 0 0 0 0 0 0 0 0 0 0 0 0 0 0 0 0 0 0 0 0 0 0 0 0 0 0
0 0 0 0 0 0 0 0 0 0 0 0 0 0 0 0 0 0 0 0 0 0 0 0 0 0 0 0 0 0 0 0 0 0 0 0 0 0 0 0 0 0 0
0 0 0 0 0 0 0 0 0 0 0 0 0 0 0 0 0 0 0 0 0 0 0 0 0 0 0 0 0 0 0 0 0 0 0 0 0 0 0 0 0 0 0
0 0 0 0 0 0 0 0 0 0 0 0 0 0 0 0 0 0 0 0 0 0 0 0 0 0 0 0 0 0 0 0 0 0 0 0 0 0 0 0 0 0 0
0 0 0 0 0 0 0 0 0 0 0 0 0 0 0 0 0 0 0 0 0 0 0 0 0 0 0 0 0 0 0 0 0 0 0 0 0 0 0 0 0 0 0
Wind_Speed
3 2 2 1 1 2 2 2 3 3 4 4 4 4 4 4 3 2 2 2 2 2 2 2 2 1 1 1 2 2 3 3 4 4 3 3 4 4 3 3 4 4 4
3 3 2 1 1 2 1 2 3 3 3 4 4 4 4 4 4 3 2 2 2 2 2 1 1 1 1 1 2 2 2 3 4 4 4 3 4 4 4 4 4 4 4
4 4 3 2 1 1 2 2 2 2 3 3 3 3 4 4 3 3 2 2 2 2 2 2 2 2 1 1 2 2 2 3 3 4 4 3 4 3 4 4 5 4 5
5 5 4 3 2 2 1 2 2 2 2 3 3 3 3 3 3 3 2 2 2 2 2 2 3 3 3 2 2 2 2 3 3 3 3 3 3 4 4 4 4 4 4
6 6 5 4 3 2 2 2 2 2 2 3 3 3 3 3 3 5 3 3 2 2 2 2 3 4 5 4 3 2 2 3 3 3 3 3 3 3 3 3 4 4 5
7 6 5 4 4 3 3 2 2 2 2 2 3 2 2 2 4 4 5 3 2 2 2 2 1 0 1 1 2 3 4 4 3 3 3 3 4 4 3 4 4 5 4
8 7 6 6 5 4 3 3 3 3 2 2 2 2 2 2 1 3 4 4 3 3 3 2 2 2 3 2 1 3 2 2 4 5 4 4 4 4 4 5 5 5 5
8 7 7 6 5 5 4 4 4 3 2 3 3 3 2 1 1 3 5 4 2 2 2 2 2 2 4 5 3 2 2 1 2 4 3 4 4 4 4 5 6 6 5
8 8 7 7 6 5 5 5 4 3 3 3 3 3 3 1 1 3 6 3 2 2 1 2 3 2 4 5 4 3 2 1 2 3 3 5 6 6 5 4 4 5 4
9 8 7 6 6 5 5 4 3 3 4 4 3 3 3 3 1 2 6 3 3 2 1 1 2 3 5 6 4 3 4 4 4 2 3 4 5 3 5 5 4 5 4
8 7 7 6 6 5 4 3 3 3 3 4 4 3 3 3 1 1 4 4 3 3 2 2 1 2 3 4 6 5 5 7 5 4 3 3 3 2 2 3 3 4 5
8 7 7 6 5 4 4 3 3 3 4 4 4 3 2 2 1 1 1 3 6 3 2 2 2 3 1 3 4 5 6 7 4 3 3 3 3 3 3 3 4 4 5
9 8 7 6 5 4 3 3 2 2 3 2 2 2 1 1 1 2 2 2 3 3 1 4 4 2 2 2 1 4 5 3 3 3 4 4 4 4 4 4 5 5 5
9 8 7 7 5 4 2 1 1 1 1 1 1 1 1 1 1 1 1 2 4 4 2 3 3 1 1 2 2 2 2 4 4 4 4 4 4 4 4 4 4 4 4
10 8 7 6 5 4 4 3 1 3 3 2 1 1 2 2 5 7 4 2 2 2 1 0 1 1 2 3 3 4 4 4 4 4 4 5 5 5 5 4 5 5 5
9 9 7 6 5 5 6 6 9 7 9 9 7 5 4 6 6 7 7 7 6 4 1 2 3 3 4 4 4 4 4 5 5 5 5 5 5 6 6 5 5 5 6
10 9 7 6 6 6 6 6 6 7 8 10 9 8 7 8 8 7 7 7 6 3 3 4 4 4 4 4 4 4 4 5 5 5 5 6 6 6 6 6 6 6 6
10 8 7 6 6 6 5 5 5 5 5 5 8 9 9 9 8 6 3 3 5 5 4 4 4 4 4 4 4 4 4 5 5 5 5 6 6 6 6 6 6 7 7
9 8 7 6 6 6 5 5 4 5 4 5 5 7 7 7 7 5 3 4 5 4 4 4 4 4 4 4 4 4 5 5 6 5 5 6 6 6 6 7 7 8 8
8 9 8 7 7 7 6 6 5 5 5 4 4 4 4 3 3 4 4 4 4 4 4 4 4 4 4 4 4 4 5 5 6 5 6 6 6 6 7 8 8 8 8
9 10 11 8 7 7 6 6 6 5 5 5 4 4 3 2 3 4 3 3 3 3 3 3 3 3 4 4 4 5 5 5 5 6 6 6 7 7 7 7 8 8 8
9 10 9 8 7 7 7 6 6 6 6 6 6 5 2 2 3 3 3 3 3 3 3 3 3 3 3 4 4 5 5 6 6 7 7 7 7 8 8 8 8 9 9
10 10 9 9 8 8 7 7 6 6 6 6 5 5 4 3 2 2 2 2 2 2 2 2 3 3 3 4 4 4 5 6 6 7 8 8 8 8 8 9 10 11 10
11 11 10 9 9 8 8 7 7 6 6 6 5 4 3 3 2 2 1 1 1 1 2 2 3 4 6 5 4 4 4 6 8 7 10 9 9 9 9 9 10 11 11
10 10 10 9 9 8 8 8 7 7 6 5 5 4 3 3 2 1 1 0 1 2 3 3 3 4 6 7 6 5 6 7 8 9 10 9 10 10 10 11 10 11 12
10 10 9 8 8 8 8 7 7 7 6 5 4 4 3 2 2 1 1 1 2 2 3 3 4 6 7 6 6 7 7 9 10 11 10 9 10 10 11 10 13 12 13
Wind_Direction
217 221 231 262 299 304 325 340 333 339 347 355 3 360 4 4 1 354 345 352 336 331 302 284 282 289 264 255 244 234 234 242 255 267 269 269 268 269 262 263 253 246 222
209 215 229 248 264 291 325 330 333 344 353 359 8 10 10 5 4 1 1 4 3 346 335 329 328 326 297 280 263 258 252 252 259 268 271 273 273 273 269 263 258 248 249
195 209 220 224 249 280 309 327 326 337 347 357 2 9 10 7 5 2 3 11 17 9 356 347 343 328 294 282 266 266 266 262 259 260 271 277 274 271 269 263 257 256 254
190 206 218 227 232 259 285 305 312 327 337 342 353 1 3 359 353 359 7 15 18 18 360 348 343 338 327 313 276 263 264 262 259 260 263 269 273 275 266 264 260 248 250
194 205 214 219 220 238 252 270 291 309 317 333 338 345 358 351 357 352 351 356 4 5 7 11 15 4 354 335 322 311 287 267 256 259 266 272 274 270 266 265 266 268 259
198 204 204 217 218 231 245 257 274 283 297 313 317 331 341 357 24 348 321 333 341 354 3 360 22 345 26 286 311 328 323 303 288 269 269 273 280 280 282 274 267 264 260
200 201 201 207 214 226 231 239 251 257 270 284 293 303 311 22 18 320 309 307 327 342 346 347 1 3 321 329 191 208 233 257 277 287 284 287 291 294 281 274 272 270 271
199 200 200 206 212 216 224 235 249 260 261 269 284 291 294 322 289 284 288 274 300 321 326 327 325 344 5 341 324 314 325 311 288 274 289 296 300 301 288 282 282 276 272
199 202 198 201 208 215 221 231 242 253 257 257 266 276 275 255 198 261 278 268 269 280 304 331 327 345 30 328 302 313 320 323 202 234 285 292 299 298 293 278 272 267 266
197 200 197 198 206 217 229 240 239 241 252 257 256 264 273 283 113 257 276 263 265 274 276 242 69 345 358 329 305 312 316 333 328 296 248 240 255 242 244 262 275 278 281
187 190 192 195 206 218 230 235 238 240 247 251 254 251 256 279 210 222 277 275 277 278 280 281 68 77 337 327 310 323 344 322 305 305 307 304 291 285 263 263 268 275 280
177 184 188 191 196 199 209 225 234 237 241 245 250 254 251 236 304 121 273 279 301 284 288 304 56 82 351 334 327 355 325 299 292 303 309 316 322 326 317 305 288 273 268
177 181 182 181 181 190 198 205 218 231 253 265 267 276 281 305 132 157 214 234 260 269 328 42 39 26 279 223 59 330 305 299 315 317 323 327 326 321 316 303 288 279 277
180 180 180 180 175 168 165 188 203 246 256 269 289 300 318 336 345 338 229 190 188 206 206 147 164 178 281 344 337 313 335 355 339 331 328 325 322 315 305 305 300 297 285
181 178 179 174 165 152 128 68 56 54 21 353 354 346 344 9 33 16 348 351 358 29 351 138 65 46 24 18 12 13 4 1 354 347 339 335 334 329 324 322 315 308 300
182 178 174 168 161 155 140 111 65 68 69 60 43 27 60 59 57 55 55 52 49 36 38 73 55 41 29 21 10 8 11 9 2 354 350 346 341 337 332 332 326 317 312
182 174 169 168 164 165 161 154 138 111 89 74 66 62 66 67 65 65 68 70 61 60 75 66 57 46 34 27 19 12 10 8 360 356 354 353 348 343 341 339 339 333 326
177 166 165 165 167 168 167 166 161 158 144 116 88 76 76 74 66 56 56 98 79 69 63 58 52 42 31 23 18 12 4 2 0 357 356 354 350 343 341 339 338 338 329
168 163 162 158 161 161 160 157 153 148 138 131 126 111 102 103 90 60 48 70 71 67 61 55 45 35 26 19 14 4 359 357 356 352 354 351 347 341 338 336 332 332 323
159 150 153 156 157 157 157 156 153 150 146 140 131 121 132 134 101 85 72 66 68 65 57 51 42 28 19 13 6 357 350 353 352 349 347 344 342 337 333 331 330 328 325
153 152 157 159 159 158 157 156 153 152 146 135 116 84 27 105 94 85 76 66 57 51 44 35 28 18 12 3 354 348 345 345 346 343 340 339 336 332 328 325 323 322 321
155 157 163 158 155 156 155 154 152 148 143 137 130 129 144 132 102 94 84 72 59 43 31 14 10 13 1 351 346 341 339 341 344 342 336 332 328 324 322 320 320 320 317
157 157 157 155 152 147 155 153 153 151 148 146 144 145 150 134 121 109 94 75 54 35 22 5 356 357 354 349 347 339 338 344 340 333 327 323 320 318 316 314 313 313 312
158 158 157 155 154 159 159 156 155 154 154 153 154 154 151 146 142 125 102 70 31 8 0 350 342 338 339 337 335 336 348 347 333 323 320 313 310 309 308 307 307 307 307
158 159 159 159 160 161 161 160 160 160 161 163 162 161 161 163 162 158 147 46 332 330 331 325 324 328 329 326 325 335 359 340 321 316 311 305 304 304 303 302 302 302 301
159 160 161 161 163 164 165 166 167 167 168 167 168 170 172 177 184 193 213 277 307 311 314 316 322 322 319 317 334 343 326 310 305 303 303 301 300 299 303 300 300 299 298